Time,TemperatureF,DewpointF,PressureIn,WindDirection,WindDirectionDegrees,WindSpeedMPH,WindSpeedGustMPH,Humidity,HourlyPrecipIn,Conditions,Clouds,dailyrainin,SoftwareType,DateUTC
2015-07-29 00:04:00,77.5,67.0,29.15,ESE,108,0.0,0.0,70,0.00,,---,0.00,VWS V15.00,2015-07-29 05:04:00,
2015-07-29 00:09:00,77.0,66.5,29.15,ESE,108,0.0,0.0,70,0.00,,---,0.00,VWS V15.00,2015-07-29 05:09:00,
2015-07-29 00:14:00,76.5,66.0,29.15,ESE,108,0.0,0.0,70,0.00,,---,0.00,VWS V15.00,2015-07-29 05:14:00,
2015-07-29 00:19:00,76.1,65.6,29.15,ESE,108,0.0,0.0,70,0.00,,---,0.16,VWS V15.00,2015-07-29 05:19:00,
2015-07-29 00:24:00,75.9,65.8,29.15,ESE,108,0.0,0.0,71,0.00,,---,0.00,VWS V15.00,2015-07-29 05:24:00,
2015-07-29 00:29:00,75.6,65.5,29.15,ESE,108,0.0,0.0,71,0.00,,---,0.00,VWS V15.00,2015-07-29 05:29:00,
2015-07-29 00:34:00,75.6,65.9,29.15,ESE,108,0.0,0.0,72,0.00,,---,0.00,VWS V15.00,2015-07-29 05:34:00,
2015-07-29 00:39:00,75.7,66.1,29.15,ESE,108,0.0,0.0,72,0.00,,---,0.00,VWS V15.00,2015-07-29 05:39:00,
2015-07-29 00:49:00,75.7,66.5,29.12,ESE,108,0.0,0.0,73,0.00,,---,0.00,VWS V15.00,2015-07-29 05:49:00,
2015-07-29 00:54:00,75.7,66.9,29.12,ESE,108,0.0,0.0,74,0.00,,---,0.00,VWS V15.00,2015-07-29 05:54:00,
2015-07-29 00:59:00,75.9,67.0,29.12,ESE,108,0.0,0.0,74,0.00,,---,0.00,VWS V15.00,2015-07-29 05:59:00,
2015-07-29 01:14:00,75.7,67.3,29.15,ESE,108,0.0,0.0,75,0.00,,---,0.00,VWS V15.00,2015-07-29 06:14:00,
2015-07-29 01:19:00,75.4,66.9,29.15,ESE,108,0.0,0.0,75,0.00,,---,0.00,VWS V15.00,2015-07-29 06:19:00,
2015-07-29 01:24:00,75.2,66.7,29.15,ESE,108,0.0,0.0,75,0.00,,---,0.00,VWS V15.00,2015-07-29 06:24:00,
2015-07-29 01:29:00,75.0,66.9,29.12,ESE,108,0.0,0.0,76,0.00,,---,0.00,VWS V15.00,2015-07-29 06:29:00,
2015-07-29 01:34:00,74.8,66.8,29.12,ESE,108,0.0,0.0,76,0.00,,---,0.00,VWS V15.00,2015-07-29 06:34:00,
2015-07-29 01:40:00,74.7,66.6,29.12,ESE,108,0.0,0.0,76,0.00,,---,0.00,VWS V15.00,2015-07-29 06:40:00,
2015-07-29 01:45:00,74.7,66.6,29.12,ESE,108,0.0,0.0,76,0.00,,---,0.00,VWS V15.00,2015-07-29 06:45:00,
2015-07-29 01:50:00,74.8,66.8,29.12,ESE,108,0.0,0.0,76,0.00,,---,0.00,VWS V15.00,2015-07-29 06:50:00,
2015-07-29 01:55:00,75.0,66.9,29.12,ESE,108,0.0,0.0,76,0.00,,---,0.00,VWS V15.00,2015-07-29 06:55:00,
2015-07-29 02:00:00,75.0,66.9,29.12,ESE,108,0.0,0.0,76,0.00,,---,0.00,VWS V15.00,2015-07-29 07:00:00,
2015-07-29 02:05:00,74.8,66.8,29.12,ESE,108,0.0,0.0,76,0.00,,---,0.00,VWS V15.00,2015-07-29 07:05:00,
2015-07-29 02:10:00,74.7,66.6,29.12,ESE,108,0.0,0.0,76,0.00,,---,0.00,VWS V15.00,2015-07-29 07:10:00,
2015-07-29 02:15:00,74.5,66.8,29.12,ESE,108,0.0,0.0,77,0.00,,---,0.00,VWS V15.00,2015-07-29 07:15:00,
2015-07-29 02:20:00,74.3,66.6,29.12,ESE,108,0.0,0.0,77,0.00,,---,0.00,VWS V15.00,2015-07-29 07:20:00,
2015-07-29 02:25:00,74.1,66.5,29.12,ESE,108,0.0,0.0,77,0.00,,---,0.00,VWS V15.00,2015-07-29 07:25:00,
2015-07-29 02:30:00,73.9,66.3,29.12,ESE,108,0.0,0.0,77,0.00,,---,0.00,VWS V15.00,2015-07-29 07:30:00,
2015-07-29 02:40:00,73.8,66.1,29.12,ESE,108,0.0,0.0,77,0.00,,---,0.00,VWS V15.00,2015-07-29 07:40:00,
2015-07-29 02:45:00,73.8,66.1,29.12,ESE,108,0.0,0.0,77,0.00,,---,0.00,VWS V15.00,2015-07-29 07:45:00,
2015-07-29 02:50:00,73.8,66.1,29.12,ESE,108,0.0,0.0,77,0.00,,---,0.00,VWS V15.00,2015-07-29 07:50:00,
2015-07-29 02:55:00,73.8,66.1,29.12,ESE,108,0.0,0.0,77,0.00,,---,0.00,VWS V15.00,2015-07-29 07:55:00,
2015-07-29 03:00:00,73.8,66.1,29.12,ESE,108,0.0,0.0,77,0.00,,---,0.00,VWS V15.00,2015-07-29 08:00:00,
2015-07-29 03:05:00,73.6,65.9,29.12,ESE,108,0.0,0.0,77,0.00,,---,0.00,VWS V15.00,2015-07-29 08:05:00,
2015-07-29 03:10:00,73.8,66.1,29.12,ESE,108,0.0,0.0,77,0.00,,---,0.00,VWS V15.00,2015-07-29 08:10:00,
2015-07-29 03:15:00,73.8,66.1,29.12,ESE,108,0.0,0.0,77,0.00,,---,0.00,VWS V15.00,2015-07-29 08:15:00,
2015-07-29 03:20:00,73.6,65.9,29.12,ESE,108,0.0,0.0,77,0.00,,---,0.00,VWS V15.00,2015-07-29 08:20:00,
2015-07-29 03:25:00,73.6,65.9,29.12,ESE,108,0.0,0.0,77,0.00,,---,0.00,VWS V15.00,2015-07-29 08:25:00,
2015-07-29 03:30:00,73.4,65.8,29.12,ESE,108,0.0,0.0,77,0.00,,---,0.00,VWS V15.00,2015-07-29 08:30:00,
2015-07-29 03:35:00,73.4,66.1,29.12,ESE,108,0.0,0.0,78,0.00,,---,0.00,VWS V15.00,2015-07-29 08:35:00,
2015-07-29 03:40:00,73.4,66.1,29.12,ESE,108,0.0,0.0,78,0.00,,---,0.00,VWS V15.00,2015-07-29 08:40:00,
2015-07-29 03:45:00,73.2,66.0,29.12,ESE,108,0.0,0.0,78,0.00,,---,0.00,VWS V15.00,2015-07-29 08:45:00,
2015-07-29 03:50:00,73.2,66.0,29.12,ESE,108,0.0,0.0,78,0.00,,---,0.00,VWS V15.00,2015-07-29 08:50:00,
2015-07-29 03:55:00,73.4,66.1,29.12,ESE,108,0.0,0.0,78,0.00,,---,0.00,VWS V15.00,2015-07-29 08:55:00,
2015-07-29 04:00:00,73.4,66.1,29.12,ESE,108,0.0,0.0,78,0.00,,---,0.00,VWS V15.00,2015-07-29 09:00:00,
2015-07-29 04:05:00,73.6,66.3,29.12,ESE,108,0.0,0.0,78,0.00,,---,0.00,VWS V15.00,2015-07-29 09:05:00,
2015-07-29 04:10:00,73.4,66.1,29.12,ESE,108,0.0,0.0,78,0.00,,---,0.00,VWS V15.00,2015-07-29 09:10:00,
2015-07-29 04:15:00,73.4,66.1,29.12,ESE,108,0.0,0.0,78,0.00,,---,0.00,VWS V15.00,2015-07-29 09:15:00,
2015-07-29 04:20:00,73.2,66.3,29.12,ESE,108,0.0,0.0,79,0.00,,---,0.00,VWS V15.00,2015-07-29 09:20:00,
2015-07-29 04:25:00,73.2,66.3,29.12,ESE,108,0.0,0.0,79,0.00,,---,0.00,VWS V15.00,2015-07-29 09:25:00,
2015-07-29 04:30:00,73.4,66.5,29.12,ESE,108,0.0,0.0,79,0.00,,---,0.00,VWS V15.00,2015-07-29 09:30:00,
2015-07-29 04:35:00,73.4,66.5,29.12,ESE,108,0.0,0.0,79,0.00,,---,0.00,VWS V15.00,2015-07-29 09:35:00,
2015-07-29 04:40:00,73.6,66.7,29.15,ESE,108,0.0,0.0,79,0.00,,---,0.00,VWS V15.00,2015-07-29 09:40:00,
2015-07-29 04:45:00,73.6,66.7,29.15,ESE,108,0.0,0.0,79,0.00,,---,0.00,VWS V15.00,2015-07-29 09:45:00,
2015-07-29 04:50:00,73.6,66.7,29.15,ESE,108,0.0,0.0,79,0.00,,---,0.00,VWS V15.00,2015-07-29 09:50:00,
2015-07-29 04:55:00,73.4,66.5,29.15,ESE,108,0.0,0.0,79,0.00,,---,0.00,VWS V15.00,2015-07-29 09:55:00,
2015-07-29 05:00:00,73.4,66.5,29.15,ESE,108,0.0,0.0,79,0.00,,---,0.00,VWS V15.00,2015-07-29 10:00:00,
2015-07-29 05:10:00,73.6,66.7,29.12,ESE,108,0.0,0.0,79,0.00,,---,0.00,VWS V15.00,2015-07-29 10:10:00,
2015-07-29 05:15:00,73.6,66.7,29.12,ESE,108,0.0,0.0,79,0.00,,---,0.00,VWS V15.00,2015-07-29 10:15:00,
2015-07-29 05:20:00,73.8,66.8,29.12,ESE,108,0.0,0.0,79,0.00,,---,0.00,VWS V15.00,2015-07-29 10:20:00,
2015-07-29 05:25:00,73.8,66.8,29.12,ESE,108,0.0,0.0,79,0.00,,---,0.00,VWS V15.00,2015-07-29 10:25:00,
2015-07-29 05:30:00,73.8,66.8,29.12,ESE,108,0.0,0.0,79,0.00,,---,0.00,VWS V15.00,2015-07-29 10:30:00,
2015-07-29 05:35:00,73.8,67.2,29.12,ESE,108,0.0,0.0,80,0.00,,---,0.00,VWS V15.00,2015-07-29 10:35:00,
2015-07-29 05:40:00,73.9,67.4,29.15,ESE,108,0.0,0.0,80,0.00,,---,0.00,VWS V15.00,2015-07-29 10:40:00,
2015-07-29 05:46:00,73.8,67.2,29.15,ESE,108,0.0,0.0,80,0.00,,---,0.00,VWS V15.00,2015-07-29 10:46:00,
2015-07-29 05:51:00,73.8,67.2,29.15,ESE,108,0.0,0.0,80,0.00,,---,0.00,VWS V15.00,2015-07-29 10:51:00,
2015-07-29 05:56:00,73.8,67.2,29.15,ESE,108,0.0,0.0,80,0.00,,---,0.00,VWS V15.00,2015-07-29 10:56:00,
2015-07-29 06:01:00,73.8,67.2,29.15,SE,129,0.0,0.0,80,0.00,,---,0.00,VWS V15.00,2015-07-29 11:01:00,
2015-07-29 06:06:00,73.8,67.2,29.15,SE,129,0.0,0.0,80,0.00,,---,0.00,VWS V15.00,2015-07-29 11:06:00,
2015-07-29 06:11:00,73.9,67.4,29.15,SE,129,0.0,0.0,80,0.00,,---,0.00,VWS V15.00,2015-07-29 11:11:00,
2015-07-29 06:16:00,74.1,67.6,29.15,WSW,244,0.0,0.0,80,0.00,,---,0.00,VWS V15.00,2015-07-29 11:16:00,
2015-07-29 06:21:00,74.3,68.1,29.15,WSW,244,0.0,0.0,81,0.00,,---,0.00,VWS V15.00,2015-07-29 11:21:00,
2015-07-29 06:26:00,74.5,68.3,29.15,WSW,244,0.0,0.0,81,0.00,,---,0.00,VWS V15.00,2015-07-29 11:26:00,
2015-07-29 06:31:00,74.7,68.4,29.15,WSW,244,0.0,0.0,81,0.00,,---,0.00,VWS V15.00,2015-07-29 11:31:00,
2015-07-29 06:36:00,75.0,68.8,29.15,WSW,244,0.0,0.0,81,0.00,,---,0.00,VWS V15.00,2015-07-29 11:36:00,
2015-07-29 06:41:00,75.4,69.2,29.15,WSW,244,0.0,0.0,81,0.00,,---,0.00,VWS V15.00,2015-07-29 11:41:00,
2015-07-29 06:46:00,75.6,69.3,29.15,WSW,246,0.0,0.0,81,0.00,,---,0.00,VWS V15.00,2015-07-29 11:46:00,
2015-07-29 06:51:00,75.9,69.7,29.15,WSW,245,0.0,3.6,81,0.00,,---,0.00,VWS V15.00,2015-07-29 11:51:00,
2015-07-29 06:56:00,76.1,69.8,29.15,West,262,0.0,0.0,81,0.00,,---,0.00,VWS V15.00,2015-07-29 11:56:00,
2015-07-29 07:01:00,76.5,70.2,29.15,West,269,0.0,0.0,81,0.00,,---,0.00,VWS V15.00,2015-07-29 12:01:00,
2015-07-29 07:06:00,76.6,70.4,29.15,West,264,0.0,0.0,81,0.00,,---,0.00,VWS V15.00,2015-07-29 12:06:00,
2015-07-29 07:11:00,77.0,70.7,29.15,West,265,0.0,0.0,81,0.00,,---,0.00,VWS V15.00,2015-07-29 12:11:00,
2015-07-29 07:16:00,77.4,71.1,29.15,West,265,0.0,0.0,81,0.00,,---,0.00,VWS V15.00,2015-07-29 12:16:00,
2015-07-29 07:21:00,77.7,71.4,29.15,West,265,0.0,0.0,81,0.00,,---,0.00,VWS V15.00,2015-07-29 12:21:00,
2015-07-29 07:26:00,78.3,71.6,29.15,West,265,0.0,0.0,80,0.00,,---,0.00,VWS V15.00,2015-07-29 12:26:00,